G6SGA Weather Reports


Display with metric or nautical units.
time (UTC)temp
F
wind
direction
speed
MPH
gust
MPH
rain 1hr
in
rain 24hr
in
rain mn
in
humidity
%
barometer
mb
20260505225504 45 51 3.0 10.0 0.00 0.00 0.00 76 1028.2
20260505225003 45 70 3.0 8.0 0.00 0.00 0.00 77 1028.2
20260505224503 45 97 2.0 7.0 0.00 0.00 0.00 77 1028.2
20260505224211 45 93 2.0 7.0 0.00 0.00 0.00 78 1028.2
20260505223503 45 50 2.0 6.0 0.00 0.00 0.00 78 1028.2
20260505223003 45 46 2.0 6.0 0.00 0.00 0.00 78 1028.2
20260505222503 45 47 2.0 6.0 0.00 0.00 0.00 79 1028.2
20260505222211 45 33 2.0 5.0 0.00 0.00 0.00 80 1028.2
20260505221503 45 35 2.0 7.0 0.00 0.00 0.00 80 1028.2
20260505221003 46 32 2.0 7.0 0.00 0.00 0.00 80 1028.2
20260505220503 46 33 2.0 7.0 0.00 0.00 0.00 80 1028.2
20260505220211 46 44 2.0 6.0 0.00 0.00 0.00 80 1028.2
20260505215503 46 64 2.0 6.0 0.00 0.00 0.00 79 1028.2
20260505215003 46 56 2.0 6.0 0.00 0.00 0.00 79 1028.2
20260505214711 46 57 2.0 5.0 0.00 0.00 0.00 79 1028.2
20260505214210 46 52 2.0 4.0 0.00 0.00 0.00 79 1028.2
20260505213503 46 69 2.0 7.0 0.00 0.00 0.00 79 1028.2
20260505213003 46 76 2.0 7.0 0.00 0.00 0.00 79 1028.2
20260505212711 46 78 2.0 7.0 0.00 0.00 0.00 79 1028.2
20260505212211 46 78 2.0 6.0 0.00 0.00 0.00 80 1028.2
20260505211503 46 80 2.0 8.0 0.00 0.00 0.00 80 1028.2
20260505211004 46 86 2.0 8.0 0.00 0.00 0.00 81 1028.2
20260505210503 47 89 2.0 8.0 0.00 0.00 0.00 81 1028.2
20260505210004 47 98 2.0 7.0 0.00 0.00 0.00 81 1028.2
20260505205503 47 87 2.0 7.0 0.00 0.00 0.00 81 1028.2
20260505205003 47 87 2.0 7.0 0.00 0.00 0.00 81 1028.2
20260505204503 47 75 2.0 7.0 0.00 0.00 0.00 81 1028.2
20260505204003 47 53 2.0 8.0 0.00 0.00 0.00 81 1028.2
20260505203503 47 53 3.0 8.0 0.00 0.00 0.00 81 1028.2
20260505203003 48 55 2.0 6.0 0.00 0.00 0.00 80 1028.2
20260505202503 48 46 3.0 7.0 0.00 0.00 0.00 80 1028.2
20260505202211 48 46 3.0 7.0 0.00 0.00 0.00 80 1028.2
20260505201504 49 47 3.0 9.0 0.00 0.00 0.00 80 1028.2
20260505201003 49 51 2.0 8.0 0.00 0.00 0.00 81 1028.2
20260505200503 49 42 1.0 4.0 0.00 0.00 0.00 81 1028.2
20260505200211 49 31 1.0 5.0 0.00 0.00 0.00 81 1028.2
20260505195503 49 29 2.0 6.0 0.00 0.00 0.00 80 1028.2
20260505195003 49 27 2.0 6.0 0.00 0.00 0.00 80 1028.2
20260505194503 49 20 2.0 6.0 0.00 0.00 0.00 80 1028.2
20260505194003 49 7 3.0 6.0 0.00 0.00 0.00 80 1028.2
20260505193503 49 355 3.0 6.0 0.00 0.00 0.00 80 1028.2
20260505193004 49 332 3.0 7.0 0.00 0.00 0.00 79 1028.2
20260505192503 49 296 3.0 7.0 0.00 0.00 0.00 79 1028.2
20260505192003 49 279 3.0 6.0 0.00 0.00 0.00 79 1028.2
20260505191503 50 306 3.0 7.0 0.00 0.00 0.00 78 1028.2
20260505191211 50 315 3.0 7.0 0.00 0.00 0.00 78 1028.2
20260505190503 50 303 3.0 7.0 0.00 0.00 0.00 77 1028.2
20260505190004 50 314 3.0 6.0 0.00 0.00 0.00 77 1028.2
20260505185503 50 328 3.0 8.0 0.00 0.00 0.00 76 1028.2
20260505185003 50 335 4.0 8.0 0.00 0.00 0.00 76 1028.2
20260505184503 51 344 4.0 8.0 0.00 0.00 0.00 75 1028.2
20260505184211 51 346 4.0 8.0 0.00 0.00 0.00 75 1028.2
20260505183503 51 338 3.0 8.0 0.00 0.00 0.00 74 1028.2
20260505183003 51 329 3.0 6.0 0.00 0.00 0.00 75 1028.2
20260505182503 51 327 2.0 5.0 0.00 0.00 0.00 75 1028.2
20260505182004 52 322 2.0 5.0 0.00 0.00 0.00 75 1028.2
20260505181711 52 319 2.0 5.0 0.00 0.00 0.00 74 1028.2
20260505181003 52 328 3.0 6.0 0.00 0.00 0.00 73 1028.2
20260505180503 52 328 3.0 7.0 0.00 0.00 0.00 72 1028.2
20260505180004 52 326 3.0 8.0 0.00 0.00 0.00 72 1028.2
20260505175503 52 326 3.0 8.0 0.00 0.00 0.00 72 1028.2
20260505175003 52 332 2.0 6.0 0.00 0.00 0.00 72 1028.2
20260505174504 52 333 3.0 7.0 0.00 0.00 0.00 72 1028.2
20260505174003 52 329 3.0 7.0 0.00 0.00 0.00 72 1028.2
20260505173711 52 328 3.0 7.0 0.00 0.00 0.00 72 1028.2
20260505173004 52 324 3.0 7.0 0.00 0.00 0.00 71 1028.2
20260505172711 52 325 3.0 6.0 0.00 0.00 0.00 71 1028.2
20260505172003 53 328 3.0 8.0 0.00 0.00 0.00 70 1028.2
20260505171503 53 330 3.0 8.0 0.00 0.00 0.00 69 1028.2
20260505171003 53 334 3.0 8.0 0.00 0.00 0.00 68 1028.2
20260505170503 53 329 3.0 8.0 0.00 0.00 0.00 68 1028.2
20260505170004 53 327 3.0 8.0 0.00 0.00 0.00 68 1028.2
20260505165503 53 328 3.0 8.0 0.00 0.00 0.00 67 1028.2
20260505165004 52 325 3.0 6.0 0.00 0.00 0.00 69 1028.2
20260505164503 52 319 3.0 6.0 0.00 0.00 0.00 72 1028.2
20260505164003 52 317 3.0 6.0 0.00 0.00 0.00 73 1028.2
20260505163503 52 320 3.0 8.0 0.00 0.00 0.00 72 1028.2
20260505163210 52 323 3.0 8.0 0.00 0.00 0.00 74 1028.2
20260505162504 51 325 2.0 5.0 0.00 0.00 0.00 74 1028.2
20260505162003 51 337 3.0 6.0 0.00 0.00 0.00 74 1028.2
20260505161710 51 341 3.0 6.0 0.00 0.00 0.00 74 1028.2
20260505161003 51 330 3.0 6.0 0.00 0.00 0.00 74 1028.2
20260505160503 51 332 3.0 6.0 0.00 0.00 0.00 75 1028.2
20260505153003 51 342 3.0 8.0 0.00 0.00 0.00 74 1028.2
20260505152504 51 341 3.0 8.0 0.00 0.00 0.00 75 1028.2
20260505152211 51 346 3.0 8.0 0.00 0.00 0.00 74 1028.2
20260505151503 51 341 3.0 7.0 0.00 0.00 0.00 75 1028.2
20260505151003 51 336 3.0 7.0 0.00 0.00 0.00 75 1028.2
20260505150503 51 355 3.0 7.0 0.00 0.00 0.00 76 1028.2
20260505140503 53 338 3.0 8.0 0.00 0.00 0.00 68 1028.2
20260505125003 53 316 3.0 7.0 0.00 0.00 0.00 69 1028.2
20260505124503 54 317 3.0 9.0 0.00 0.00 0.00 68 1028.2
20260505124004 53 329 3.0 9.0 0.00 0.00 0.00 68 1028.2
20260505123503 53 329 4.0 9.0 0.00 0.00 0.00 69 1028.2
20260505123003 53 322 4.0 8.0 0.00 0.00 0.00 68 1028.2
20260505122504 53 324 4.0 9.0 0.00 0.00 0.00 70 1028.2
20260505122003 52 330 4.0 10.0 0.00 0.00 0.00 71 1028.2
20260505121503 52 331 4.0 10.0 0.00 0.00 0.00 69 1028.2
20260505121003 52 335 4.0 9.0 0.00 0.00 0.00 70 1028.2
20260505120710 52 331 4.0 9.0 0.00 0.00 0.00 70 1028.2
20260505120004 52 317 4.0 7.0 0.00 0.00 0.00 70 1028.2
20260505115503 52 327 4.0 8.0 0.00 0.00 0.00 70 1028.2
20260505115211 52 331 4.0 8.0 0.00 0.00 0.00 70 1028.2
20260505114711 52 336 3.0 8.0 0.00 0.00 0.00 68 1028.2
20260505114004 53 336 4.0 9.0 0.00 0.00 0.00 67 1028.2
20260505113503 53 334 4.0 9.0 0.00 0.00 0.00 67 1028.2
20260505113004 53 330 4.0 9.0 0.00 0.00 0.00 67 1028.2
20260505112503 54 332 4.0 9.0 0.00 0.00 0.00 65 1028.2
20260505112003 53 340 4.0 7.0 0.00 0.00 0.00 67 1028.2
20260505111503 53 333 4.0 8.0 0.00 0.00 0.00 68 1028.2
20260505111210 53 327 4.0 8.0 0.00 0.00 0.00 68 1028.2
20260505110503 53 331 3.0 7.0 0.00 0.00 0.00 68 1028.2
20260505110211 53 328 3.0 8.0 0.00 0.00 0.00 68 1028.2
20260505102004 51 2 5.0 10.0 0.00 0.00 0.00 70 1028.2
20260505101503 51 2 4.0 10.0 0.00 0.00 0.00 70 1028.2
20260505101004 51 3 4.0 11.0 0.00 0.00 0.00 70 1028.2
20260505100503 51 3 5.0 11.0 0.00 0.00 0.00 70 1028.2
20260505100004 50 359 5.0 11.0 0.00 0.00 0.00 72 1028.2
20260505095503 51 353 5.0 11.0 0.00 0.00 0.00 74 1028.2
20260505095003 51 348 5.0 11.0 0.00 0.00 0.00 74 1028.2
20260505094504 52 348 4.0 11.0 0.00 0.00 0.00 71 1028.2
20260505094003 52 341 4.0 11.0 0.00 0.00 0.00 67 1028.2
20260505093503 53 338 4.0 11.0 0.00 0.00 0.00 65 1028.2
20260505093004 53 330 4.0 9.0 0.00 0.00 0.00 65 1028.2
20260505092711 53 331 5.0 11.0 0.00 0.00 0.00 64 1028.2
20260505092211 53 335 5.0 11.0 0.00 0.00 0.00 65 1028.2
20260505091503 52 338 4.0 9.0 0.00 0.00 0.00 66 1028.2
20260505091003 51 348 5.0 11.0 0.00 0.00 0.00 67 1028.2
20260505090503 51 349 5.0 11.0 0.00 0.00 0.00 70 1028.2
20260505090211 52 346 5.0 11.0 0.00 0.00 0.00 70 1028.2
20260505085503 52 343 4.0 9.0 0.00 0.00 0.00 70 1028.2
20260505085003 53 346 4.0 9.0 0.00 0.00 0.00 69 1028.2
20260505084503 53 356 4.0 9.0 0.00 0.00 0.00 69 1028.2
20260505084003 52 355 4.0 9.0 0.00 0.00 0.00 69 1028.2
20260505083503 52 353 4.0 9.0 0.00 0.00 0.00 70 1028.2
20260505083210 52 355 4.0 9.0 0.00 0.00 0.00 71 1028.2
20260505082711 51 4 5.0 9.0 0.00 0.00 0.00 72 1028.2
20260505082003 51 8 4.0 9.0 0.00 0.00 0.00 75 1028.2
20260505081504 51 6 4.0 9.0 0.00 0.00 0.00 78 1028.2
20260505081211 50 10 4.0 9.0 0.00 0.00 0.00 78 1028.2
20260505080503 50 6 4.0 8.0 0.00 0.00 0.00 80 1028.2
20260505080004 50 9 4.0 8.0 0.00 0.00 0.00 80 1028.2
20260505075503 49 6 4.0 8.0 0.00 0.00 0.00 81 1028.2
20260505075003 49 356 5.0 8.0 0.00 0.00 0.00 84 1028.2
20260505074503 49 358 4.0 8.0 0.00 0.00 0.00 84 1028.2
20260505074003 49 9 3.0 6.0 0.00 0.00 0.00 86 1028.2
20260505073503 48 1 3.0 6.0 0.00 0.00 0.00 88 1028.2
20260505073004 48 342 3.0 6.0 0.00 0.00 0.00 90 1028.2
20260505072503 47 342 3.0 7.0 0.00 0.00 0.00 91 1028.2
20260505072003 47 349 3.0 7.0 0.00 0.00 0.00 92 1028.2
20260505071710 47 347 3.0 7.0 0.00 0.00 0.00 92 1028.2
20260505071003 46 344 3.0 6.0 0.00 0.00 0.00 93 1028.2
20260505070503 46 351 3.0 6.0 0.00 0.00 0.00 93 1028.2
20260505070004 46 353 2.0 6.0 0.00 0.00 0.00 94 1028.2
20260505065503 46 333 2.0 6.0 0.00 0.00 0.00 96 1028.2
20260505065003 46 326 3.0 6.0 0.00 0.00 0.00 96 1028.2
20260505064503 45 334 3.0 6.0 0.00 0.00 0.00 96 1028.2
20260505064003 45 346 3.0 7.0 0.00 0.00 0.00 96 1028.2
20260505063503 45 344 3.0 7.0 0.00 0.00 0.00 96 1028.2
20260505063211 45 337 3.0 7.0 0.00 0.00 0.00 96 1028.2
20260505062503 45 336 2.0 5.0 0.00 0.00 0.00 96 1028.2
20260505062003 45 344 2.0 5.0 0.00 0.00 0.00 97 1028.2
20260505061504 45 344 2.0 5.0 0.00 0.00 0.00 97 1028.2
20260505061003 45 341 2.0 4.0 0.00 0.00 0.00 99 1028.2
20260505060503 45 333 2.0 4.0 0.00 0.00 0.00 99 1028.2
20260505060211 44 333 2.0 4.0 0.00 0.00 0.00 99 1028.2
20260505055711 44 332 3.0 4.0 0.00 0.00 0.00 99 1028.2
20260505055003 44 345 2.0 5.0 0.00 0.00 0.00 99 1028.2
20260505054504 43 338 2.0 5.0 0.00 0.00 0.00 99 1028.2
20260505054211 43 339 2.0 5.0 0.00 0.00 0.00 99 1028.2
20260505053504 43 337 1.0 2.0 0.00 0.00 0.00 99 1028.2
20260505053003 43 334 1.0 2.0 0.00 0.00 0.00 99 1028.2
20260505052503 43 319 1.0 2.0 0.00 0.00 0.00 99 1028.2
20260505052003 42 316 1.0 2.0 0.00 0.00 0.00 99 1028.2
20260505051503 42 327 1.0 2.0 0.00 0.00 0.00 99 1028.2
20260505051003 42 319 1.0 3.0 0.00 0.00 0.00 99 1028.2
20260505050503 42 311 1.0 3.0 0.00 0.00 0.00 99 1028.2
20260505050211 42 315 1.0 3.0 0.00 0.00 0.00 99 1028.2
20260505041503 43 337 2.0 4.0 0.00 0.00 0.00 99 1028.2
20260505041003 43 338 2.0 3.0 0.00 0.00 0.00 99 1028.2
20260505040503 43 344 2.0 4.0 0.00 0.00 0.00 99 1028.2
20260505040004 43 342 2.0 4.0 0.00 0.00 0.00 99 1028.2
20260505035503 43 344 2.0 4.0 0.00 0.00 0.00 99 1028.2
20260505035211 43 342 2.0 4.0 0.00 0.00 0.00 99 1028.2
20260505033503 43 341 2.0 4.0 0.00 0.00 0.00 98 1028.2
20260505033211 43 340 2.0 4.0 0.00 0.00 0.00 98 1028.2
20260505032503 43 344 2.0 4.0 0.00 0.00 0.00 98 1028.2
20260505032003 43 341 2.0 3.0 0.00 0.00 0.00 98 1028.2
20260505031503 43 347 2.0 3.0 0.00 0.00 0.00 98 1028.2
20260505031211 43 348 2.0 3.0 0.00 0.00 0.00 98 1028.2
20260505030710 43 349 2.0 6.0 0.00 0.00 0.00 98 1028.2
20260505030004 43 350 2.0 6.0 0.00 0.00 0.00 98 1028.2
20260505025503 43 347 2.0 4.0 0.00 0.00 0.00 98 1028.2
20260505025004 43 342 3.0 4.0 0.00 0.00 0.00 98 1028.2
20260505024503 43 341 3.0 5.0 0.00 0.00 0.00 98 1028.2
20260505024003 43 343 3.0 6.0 0.00 0.00 0.00 98 1028.2
20260505023503 43 340 3.0 6.0 0.00 0.00 0.00 98 1028.2
20260505023003 43 332 2.0 4.0 0.00 0.00 0.00 98 1028.2
20260505022504 43 327 2.0 4.0 0.00 0.00 0.00 98 1028.2
20260505022003 43 320 2.0 4.0 0.00 0.00 0.00 97 1028.2
20260505021503 43 321 2.0 4.0 0.00 0.00 0.00 96 1028.2
20260505021211 43 319 2.0 5.0 0.00 0.00 0.00 96 1028.2
20260505020503 43 312 2.0 5.0 0.00 0.00 0.00 96 1028.2
20260505020004 43 302 2.0 4.0 0.00 0.00 0.00 95 1028.2
20260505015710 43 309 2.0 4.0 0.00 0.00 0.00 95 1028.2
20260505015211 43 318 2.0 4.0 0.00 0.00 0.00 95 1028.2
20260505014503 43 321 2.0 4.0 0.00 0.00 0.00 94 1028.2
20260505014003 44 321 2.0 4.0 0.00 0.00 0.00 94 1028.2
20260505013503 44 326 2.0 4.0 0.00 0.00 0.00 93 1028.2
20260505013003 44 338 3.0 5.0 0.00 0.00 0.00 92 1028.2
20260505012503 44 344 3.0 5.0 0.00 0.00 0.00 92 1028.2
20260505012003 44 339 3.0 5.0 0.00 0.00 0.00 92 1028.2
20260505011711 44 337 3.0 5.0 0.00 0.00 0.00 92 1028.2
20260505011003 44 336 3.0 6.0 0.00 0.00 0.00 92 1028.2
20260505010503 44 337 3.0 6.0 0.00 0.00 0.00 92 1028.2
20260505010004 44 333 3.0 7.0 0.00 0.00 0.00 92 1028.2
20260505005503 44 332 3.0 7.0 0.00 0.00 0.00 91 1028.2
20260505005004 44 336 3.0 6.0 0.00 0.00 0.00 91 1028.2
20260505004503 44 334 3.0 6.0 0.00 0.00 0.00 92 1028.2
20260505004211 44 335 3.0 6.0 0.00 0.00 0.00 92 1028.2
20260505003504 44 328 3.0 5.0 0.00 0.00 0.00 92 1028.2
20260505003003 44 318 2.0 4.0 0.00 0.00 0.00 92 1028.2
20260505002503 45 319 2.0 4.0 0.00 0.00 0.00 91 1028.2
20260505002003 45 323 2.0 5.0 0.00 0.00 0.00 90 1028.2
20260505001503 45 329 3.0 5.0 0.00 0.00 0.00 90 1028.2
20260505001003 45 327 3.0 4.0 0.00 0.00 0.00 90 1028.2
20260505000503 45 327 3.0 7.0 0.00 0.00 0.00 89 1028.2
20260505000211 45 326 3.0 7.0 0.00 0.00 0.00 88 1028.2
20260504235503 45 331 2.0 5.0 0.00 0.00 0.00 88 1028.2
20260504235004 45 333 3.0 6.0 0.00 0.00 0.00 88 1028.2
20260504234711 46 332 3.0 6.0 0.00 0.00 0.00 88 1028.2
20260504234003 46 331 3.0 5.0 0.00 0.00 0.00 88 1028.2
20260504233503 46 330 3.0 6.0 0.00 0.00 0.00 88 1028.2
20260504233003 46 329 3.0 7.0 0.00 0.00 0.00 88 1028.2
20260504232503 45 332 3.0 7.0 0.00 0.00 0.00 89 1028.2
20260504232003 45 325 3.0 5.0 0.00 0.00 0.00 90 1028.2
20260504231503 45 318 2.0 3.0 0.00 0.00 0.00 91 1028.2
20260504231003 46 318 2.0 4.0 0.00 0.00 0.00 91 1028.2
20260504230503 46 317 2.0 4.0 0.00 0.00 0.00 91 1028.2
20260504230006 46 316 2.0 4.0 0.00 0.00 0.00 91 1028.2